Location: Baix
(44.7118°N, 4.7648°E)
Time: 02:27:28
(UTC+00:00)

SL-16 R/B - Pass Details

Date: 07 August 2020
Orbit: 985 x 1007 km, 99.5° (Epoch: 27 September)

Event Time Altitude Azimuth Distance (km) Brightness Sun altitude
Exits shadow 00:28:36 27° 113° (ESE) 1,845 3.8 -28.2°
Maximum altitude 00:31:23 40° 65° (ENE) 1,441 3.6 -28.1°
Drops below altitude 10° 00:37:10 10° 358° (N) 2,790 5.8 -27.9°
Sets 00:39:47 0° 351° (N) 3,742 6.6 -27.8°
